User: anonymous   Login
Location: Aufkirchen
(47.9603°N, 11.3653°E)
Time: 00:58:20
(UTC+01:00)
Language:

SR - Orbit

View from above orbital plane
View from above orbital plane
View from above satellite
View from above satellite

Ground track
Ground track

The orbit data is extracted from the following two-line orbital elements,

1    46U 60007B   20340.18990786 +.00000258 +00000-0 +74016-4 0  9997
2    46 066.6904 305.1990 0209823 001.8844 358.3005 14.49342142163850
Epoch (UTC): 05 December 2020 04:33:28
Eccentricity: 0.0209823
inclination: 66.6904°
perigee height: 579 km
apogee height: 877 km
right ascension of ascending node: 305.1990°
argument of perigee: 1.8844°
revolutions per day: 14.49342142
mean anomaly at epoch: 358.3005°
orbit number at epoch: 16385

The dashed part of the orbit path shows where the satellite is in the earth's shadow,  

DLR